Meteo pe oră la Bolshie Hutora

Astăzi, 12 Mai, Miercuri

Timp Temperatura Precipitaţii Vânt Presiune Umiditate
00:00 +11°C° 0 mm 3 m/s 748 mmHg 94%
01:00 +10°C° 0 mm 3 m/s 748 mmHg 95%
02:00 +10°C° 0 mm 3 m/s 748 mmHg 97%
03:00 +10°C° 0 mm 3 m/s 748 mmHg 95%
04:00 +9°C° 0 mm 3 m/s 748 mmHg 93%
05:00 +8°C° 0 mm 4 m/s 749 mmHg 92%
06:00 +10°C° 0 mm 4 m/s 749 mmHg 84%
07:00 +10°C° 0 mm 4 m/s 749 mmHg 76%
08:00 +11°C° 0 mm 4 m/s 749 mmHg 67%
09:00 +12°C° 0 mm 4 m/s 749 mmHg 63%
10:00 +13°C° 0 mm 3 m/s 749 mmHg 58%
11:00 +16°C° 0 mm 3 m/s 748 mmHg 54%
12:00 +16°C° 0 mm 3 m/s 748 mmHg 52%
13:00 +17°C° 0 mm 3 m/s 747 mmHg 50%
14:00 +17°C° 0 mm 3 m/s 747 mmHg 48%
15:00 +16°C° 0 mm 3 m/s 746 mmHg 55%
16:00 +14°C° 0 mm 3 m/s 745 mmHg 62%
17:00 +13°C° 0 mm 3 m/s 744 mmHg 70%
18:00 +12°C° 0.9 mm 3 m/s 744 mmHg 78%
19:00 +12°C° 0.9 mm 2 m/s 743 mmHg 87%
20:00 +9°C° 0.9 mm 2 m/s 742 mmHg 96%
21:00 +9°C° 1.4 mm 3 m/s 742 mmHg 95%
22:00 +8°C° 1.4 mm 4 m/s 742 mmHg 95%
23:00 +8°C° 1.4 mm 5 m/s 742 mmHg 95%

Mâine, 13 Mai, Joi

Timp Temperatura Precipitaţii Vânt Presiune Umiditate
00:00 +7°C° 0.3 mm 4 m/s 742 mmHg 95%
01:00 +7°C° 0.3 mm 4 m/s 742 mmHg 96%
02:00 +7°C° 0.3 mm 3 m/s 742 mmHg 96%
03:00 +6°C° 0.2 mm 4 m/s 741 mmHg 96%
04:00 +6°C° 0.2 mm 4 m/s 741 mmHg 96%
05:00 +6°C° 0.2 mm 5 m/s 741 mmHg 95%
06:00 +7°C° 0.4 mm 5 m/s 741 mmHg 93%
07:00 +7°C° 0.4 mm 5 m/s 741 mmHg 91%
08:00 +8°C° 0.4 mm 5 m/s 741 mmHg 88%
09:00 +9°C° 0.3 mm 6 m/s 741 mmHg 81%
10:00 +10°C° 0.3 mm 6 m/s 741 mmHg 75%
11:00 +11°C° 0.3 mm 7 m/s 741 mmHg 68%
12:00 +13°C° 0.2 mm 6 m/s 741 mmHg 67%
13:00 +13°C° 0.2 mm 6 m/s 741 mmHg 65%
14:00 +13°C° 0.2 mm 6 m/s 740 mmHg 63%
15:00 +13°C° 0 mm 5 m/s 740 mmHg 65%
16:00 +13°C° 0 mm 5 m/s 740 mmHg 67%
17:00 +12°C° 0 mm 4 m/s 740 mmHg 69%
18:00 +11°C° 0 mm 4 m/s 740 mmHg 75%
19:00 +10°C° 0 mm 3 m/s 740 mmHg 80%
20:00 +8°C° 0 mm 3 m/s 741 mmHg 86%
21:00 +8°C° 0 mm 3 m/s 741 mmHg 88%
22:00 +7°C° 0 mm 3 m/s 741 mmHg 90%
23:00 +7°C° 0 mm 3 m/s 741 mmHg 92%

Poimâine, 14 Mai, Vineri

Timp Temperatura Precipitaţii Vânt Presiune Umiditate
00:00 +7°C° 0 mm 3 m/s 741 mmHg 88%
01:00 +7°C° 0 mm 4 m/s 741 mmHg 83%
02:00 +8°C° 0 mm 4 m/s 741 mmHg 79%
03:00 +8°C° 0 mm 4 m/s 741 mmHg 81%
04:00 +7°C° 0 mm 4 m/s 741 mmHg 83%
05:00 +7°C° 0 mm 4 m/s 741 mmHg 85%
06:00 +8°C° 0 mm 4 m/s 741 mmHg 83%
07:00 +9°C° 0 mm 5 m/s 741 mmHg 82%
08:00 +10°C° 0 mm 5 m/s 741 mmHg 80%
09:00 +13°C° 0 mm 5 m/s 740 mmHg 74%
10:00 +15°C° 0 mm 6 m/s 740 mmHg 68%
11:00 +19°C° 0 mm 6 m/s 740 mmHg 62%
12:00 +19°C° 0.3 mm 6 m/s 740 mmHg 64%
13:00 +20°C° 0.3 mm 6 m/s 739 mmHg 66%
14:00 +20°C° 0.3 mm 6 m/s 739 mmHg 68%
15:00 +20°C° 0.8 mm 6 m/s 738 mmHg 72%
16:00 +19°C° 0.8 mm 5 m/s 738 mmHg 76%
17:00 +19°C° 0.8 mm 4 m/s 738 mmHg 80%
18:00 +18°C° 0.2 mm 4 m/s 738 mmHg 84%
19:00 +16°C° 0.2 mm 3 m/s 737 mmHg 88%
20:00 +14°C° 0.2 mm 3 m/s 737 mmHg 92%
21:00 +14°C° 0 mm 2 m/s 737 mmHg 93%
22:00 +13°C° 0 mm 2 m/s 737 mmHg 93%
23:00 +13°C° 0 mm 2 m/s 737 mmHg 93%

15 Mai, Sâmbătă

Timp Temperatura Precipitaţii Vânt Presiune Umiditate
00:00 +12°C° 0 mm 2 m/s 737 mmHg 93%
01:00 +12°C° 0 mm 1 m/s 737 mmHg 93%
02:00 +12°C° 0 mm 1 m/s 737 mmHg 93%
03:00 +12°C° 0 mm 1 m/s 737 mmHg 93%
04:00 +12°C° 0 mm 1 m/s 737 mmHg 93%
05:00 +12°C° 0 mm 1 m/s 737 mmHg 93%
06:00 +13°C° 0 mm 1 m/s 737 mmHg 89%
07:00 +15°C° 0 mm 2 m/s 737 mmHg 85%
08:00 +16°C° 0 mm 2 m/s 737 mmHg 81%
09:00 +17°C° 0.7 mm 2 m/s 737 mmHg 77%
10:00 +18°C° 0.7 mm 3 m/s 737 mmHg 73%
11:00 +20°C° 0.7 mm 3 m/s 737 mmHg 69%
12:00 +19°C° 1.4 mm 4 m/s 737 mmHg 70%
13:00 +19°C° 1.4 mm 4 m/s 737 mmHg 72%
14:00 +19°C° 1.4 mm 5 m/s 737 mmHg 74%
15:00 +17°C° 0.8 mm 5 m/s 737 mmHg 77%
16:00 +16°C° 0.8 mm 5 m/s 737 mmHg 80%
17:00 +15°C° 0.8 mm 6 m/s 737 mmHg 82%
18:00 +14°C° 0 mm 5 m/s 738 mmHg 86%
19:00 +13°C° 0 mm 4 m/s 738 mmHg 89%
20:00 +11°C° 0 mm 3 m/s 739 mmHg 93%
21:00 +11°C° 0 mm 3 m/s 739 mmHg 94%
22:00 +10°C° 0 mm 3 m/s 739 mmHg 95%
23:00 +10°C° 0 mm 3 m/s 739 mmHg 95%

16 Mai, Duminică

Timp Temperatura Precipitaţii Vânt Presiune Umiditate
00:00 +9°C° 0 mm 2 m/s 740 mmHg 95%
01:00 +9°C° 0 mm 2 m/s 740 mmHg 95%
02:00 +9°C° 0 mm 2 m/s 740 mmHg 95%
03:00 +9°C° 0 mm 2 m/s 741 mmHg 95%
04:00 +9°C° 0 mm 2 m/s 741 mmHg 95%
05:00 +9°C° 0 mm 2 m/s 741 mmHg 94%
06:00 +10°C° 0 mm 2 m/s 742 mmHg 88%
07:00 +13°C° 0 mm 2 m/s 742 mmHg 81%
08:00 +15°C° 0 mm 2 m/s 742 mmHg 75%
09:00 +16°C° 0 mm 1 m/s 742 mmHg 70%
10:00 +18°C° 0 mm 1 m/s 743 mmHg 65%
11:00 +20°C° 0 mm 1 m/s 743 mmHg 60%
12:00 +20°C° 0 mm 1 m/s 743 mmHg 57%
13:00 +21°C° 0 mm 1 m/s 743 mmHg 55%
14:00 +20°C° 0 mm 0 m/s 743 mmHg 53%
15:00 +22°C° 0 mm 1 m/s 743 mmHg 56%
16:00 +21°C° 0 mm 1 m/s 743 mmHg 59%
17:00 +20°C° 0 mm 2 m/s 742 mmHg 62%
18:00 +18°C° 0 mm 2 m/s 742 mmHg 67%
19:00 +17°C° 0 mm 3 m/s 742 mmHg 72%
20:00 +14°C° 0 mm 3 m/s 742 mmHg 77%
21:00 +13°C° 0 mm 3 m/s 742 mmHg 79%
22:00 +13°C° 0 mm 3 m/s 742 mmHg 81%
23:00 +12°C° 0 mm 4 m/s 742 mmHg 83%

17 Mai, Luni

Timp Temperatura Precipitaţii Vânt Presiune Umiditate
00:00 +11°C° 0 mm 4 m/s 742 mmHg 84%
01:00 +11°C° 0 mm 4 m/s 742 mmHg 86%
02:00 +11°C° 0 mm 4 m/s 742 mmHg 87%
03:00 +11°C° 0.1 mm 4 m/s 741 mmHg 87%
04:00 +12°C° 0.1 mm 5 m/s 741 mmHg 87%
05:00 +12°C° 0.1 mm 5 m/s 740 mmHg 87%
06:00 +14°C° 0.1 mm 6 m/s 740 mmHg 85%
07:00 +15°C° 0.1 mm 7 m/s 740 mmHg 83%
08:00 +17°C° 0.1 mm 7 m/s 739 mmHg 81%
09:00 +20°C° 0 mm 7 m/s 739 mmHg 76%
10:00 +21°C° 0 mm 8 m/s 739 mmHg 72%
11:00 +23°C° 0 mm 8 m/s 739 mmHg 67%
12:00 +24°C° 0 mm 7 m/s 738 mmHg 65%
13:00 +26°C° 0 mm 7 m/s 738 mmHg 62%
14:00 +27°C° 0 mm 7 m/s 738 mmHg 59%
15:00 +27°C° 0.1 mm 7 m/s 738 mmHg 62%
16:00 +26°C° 0.1 mm 7 m/s 738 mmHg 64%
17:00 +24°C° 0.1 mm 6 m/s 737 mmHg 66%
18:00 +22°C° 0 mm 6 m/s 737 mmHg 68%
19:00 +21°C° 0 mm 6 m/s 737 mmHg 70%
20:00 +19°C° 0 mm 5 m/s 738 mmHg 72%
21:00 +19°C° 0 mm 5 m/s 738 mmHg 76%
22:00 +17°C° 0 mm 5 m/s 738 mmHg 79%
23:00 +17°C° 0 mm 4 m/s 738 mmHg 83%
Arată mai mult

Formular de consimțământ

Meteoprog și furnizorii noștri de servicii pot stoca și accesa date personale, precum cookies, identificatori de dispozitiv sau alte tehnologii similare pe dispozitivul dumneavoastră și procesa astfel de date pentru a personaliza conținutul și reclamele, dar și pentru a oferi caracteristici de social media și pentru a analiza traficul.

  • Stocarea și/sau accesarea informațiilor pe dispozitivul dumneavoastră

    Cookies, identificatori de dispozitiv sau alte informații pot fi stocate sau accesate pe dispozitiv în scopurile indicate mai sus.

  • Reclame și conținut personalizat, evaluarea reclamelor și a conținutului, informații despre audiențe și dezvoltarea produselor

    Reclamele și conținutul pot fi personalizate pe baza unui profil. Pot fi adăugate date suplimentare pentru a personaliza mai bine reclamele și conținutul. Performanța reclamelor și conținutului poate fi măsurată. Pot fi obținute informații despre utilizatorii care au văzut reclamele și conținutul. Aceste date pot fi utilizate pentru a dezvolta sau îmbunătăți experiența utilizatorilor, sistemele și software-ul.

Dând clic pe ‘Sunt de acord’, permiteți utilizarea cookie-urilor menționate, a identificatorilor de dispozitiv, balizelor web sau altor tehnologii similare. Setările pot fi modificate din browser-ul dispozitivului dumneavoastră.

În anumite scopuri, interesele legitime pot prima asupra consimțământului. Puteți citi mai multe informații în acest sens în Politica privind Confidențialitatea Datelor și Cookie.